Multibeam Report for RR1004


Ship Name: Roger Revelle
Chief Scientist: Lien, Ren-Chieh
University of Washington
Source Organization: Rolling Deck to Repository
Start Date: 2010-03-21
End Date: 2010-04-01


View ISO Metadata

Visit the full NCEI Bathymetry Viewer


Multibeam Bathymetry

Cruise Details

Project: Process Study of Oceanic Responses to Typhoons using Arrays of EM-APEX Floats and Moorings
Instrument: Simrad EM122

Data Quality

Number of Files: 72
Number of Records: 30358
BATHYMETRY DATA Quantity Percentage
Number of Beams 13114656 100%
Number of Good Beams 12158915 92.71%
Number of Zero Beams 0 0%
Number of Flagged Beams 955741 7.29%
AMPLITUDE DATA Quantity Percentage
Number of Beams 13114656 100%
Number of Good Beams 12158915 92.71%
Number of Zero Beams 0 0%
Number of Flagged Beams 955741 7.29%
SIDESCAN DATA Quantity Percentage
Number of Pixels 31086592 100%
Number of Good Pixels 22417018 72.11%
Number of Zero Pixels 0 0%
Number of Flagged Pixels 8669574 27.89%

Navigation Totals

Total Time: 114.2497 hours
Total Track Length: 1666.7533 km
Average Speed: 14.589 km/hr (7.8774 knots)

Cruise Bounds

Northern Extent: 21.458923
Southern Extent: 18.865662
Western Extent: 121.65444
Eastern Extent: 127.7778

Limits

Minimum Sonar Depth 0.8518 Maximum Sonar Depth 8.6253
Minimum Altitude 0 Maximum Altitude 7427.6279
Minimum Depth 4.0066 Maximum Depth 8198.6348
Minimum Amplitude 0 Maximum Amplitude 0
Minimum Sidescan 0 Maximum Sidescan 0.36

File Information

Full Resolution Bathymetry as collected (raw): 69

Files File Size Description
0000_20100321_151726_RV_Revelle.all.mb58.gz 8.69MB Kongsberg multibeam vendor format
0000_20100406_181113_RV_Revelle.all.mb58.gz 45.36MB Kongsberg multibeam vendor format
0001_20100321_153911_RV_Revelle.all.mb58.gz 11.42MB Kongsberg multibeam vendor format
0001_20100406_201114_RV_Revelle.all.mb58.gz 23.45MB Kongsberg multibeam vendor format
0002_20100321_160804_RV_Revelle.all.mb58.gz 35.41MB Kongsberg multibeam vendor format
0002_20100406_221115_RV_Revelle.all.mb58.gz 25.12MB Kongsberg multibeam vendor format
0003_20100321_180754_RV_Revelle.all.mb58.gz 20.78MB Kongsberg multibeam vendor format
0003_20100407_001120_RV_Revelle.all.mb58.gz 12.42MB Kongsberg multibeam vendor format
0004_20100321_200755_RV_Revelle.all.mb58.gz 26.86MB Kongsberg multibeam vendor format
0005_20100321_220752_RV_Revelle.all.mb58.gz 20.98MB Kongsberg multibeam vendor format
0006_20100322_000757_RV_Revelle.all.mb58.gz 14.24MB Kongsberg multibeam vendor format
0007_20100322_080518_RV_Revelle.all.mb58.gz 6.35MB Kongsberg multibeam vendor format
0009_20100322_160901_RV_Revelle.all.mb58.gz 20.69MB Kongsberg multibeam vendor format
0010_20100322_180908_RV_Revelle.all.mb58.gz 3.06MB Kongsberg multibeam vendor format
0011_20100323_102116_RV_Revelle.all.mb58.gz 19.89MB Kongsberg multibeam vendor format
0012_20100323_122117_RV_Revelle.all.mb58.gz 19.79MB Kongsberg multibeam vendor format
0013_20100323_142126_RV_Revelle.all.mb58.gz 19.32MB Kongsberg multibeam vendor format
0014_20100323_162128_RV_Revelle.all.mb58.gz 19.13MB Kongsberg multibeam vendor format
0015_20100323_182118_RV_Revelle.all.mb58.gz 19.30MB Kongsberg multibeam vendor format
0016_20100323_202125_RV_Revelle.all.mb58.gz 19.41MB Kongsberg multibeam vendor format
0017_20100323_222126_RV_Revelle.all.mb58.gz 19.13MB Kongsberg multibeam vendor format
0018_20100324_002127_RV_Revelle.all.mb58.gz 19.23MB Kongsberg multibeam vendor format
0019_20100324_022131_RV_Revelle.all.mb58.gz 18.91MB Kongsberg multibeam vendor format
0020_20100324_042124_RV_Revelle.all.mb58.gz 19.03MB Kongsberg multibeam vendor format
0021_20100324_062117_RV_Revelle.all.mb58.gz 8.31MB Kongsberg multibeam vendor format
0022_20100324_111725_RV_Revelle.all.mb58.gz 18.94MB Kongsberg multibeam vendor format
0023_20100324_131737_RV_Revelle.all.mb58.gz 19.13MB Kongsberg multibeam vendor format
0024_20100324_151727_RV_Revelle.all.mb58.gz 3.87MB Kongsberg multibeam vendor format
0025_20100324_154151_RV_Revelle.all.mb58.gz 36.4KB Kongsberg multibeam vendor format
0026_20100324_154207_RV_Revelle.all.mb58.gz 1.41MB Kongsberg multibeam vendor format
0027_20100324_155045_RV_Revelle.all.mb58.gz 12.11MB Kongsberg multibeam vendor format
0028_20100324_193844_RV_Revelle.all.mb58.gz 19.20MB Kongsberg multibeam vendor format
0029_20100324_213845_RV_Revelle.all.mb58.gz 2.47MB Kongsberg multibeam vendor format
0030_20100325_013619_RV_Revelle.all.mb58.gz 4.82MB Kongsberg multibeam vendor format
0033_20100325_083646_RV_Revelle.all.mb58.gz 19.18MB Kongsberg multibeam vendor format
0034_20100325_103632_RV_Revelle.all.mb58.gz 19.14MB Kongsberg multibeam vendor format
0035_20100325_123637_RV_Revelle.all.mb58.gz 19.70MB Kongsberg multibeam vendor format
0036_20100325_143639_RV_Revelle.all.mb58.gz 15.24MB Kongsberg multibeam vendor format
0037_20100325_212242_RV_Revelle.all.mb58.gz 19.64MB Kongsberg multibeam vendor format
0038_20100325_232232_RV_Revelle.all.mb58.gz 20.10MB Kongsberg multibeam vendor format
0039_20100326_012241_RV_Revelle.all.mb58.gz 19.65MB Kongsberg multibeam vendor format
0040_20100326_032234_RV_Revelle.all.mb58.gz 19.95MB Kongsberg multibeam vendor format
0041_20100326_052241_RV_Revelle.all.mb58.gz 16.03MB Kongsberg multibeam vendor format
0042_20100326_093012_RV_Revelle.all.mb58.gz 15.85MB Kongsberg multibeam vendor format
0043_20100326_112958_RV_Revelle.all.mb58.gz 21.21MB Kongsberg multibeam vendor format
0044_20100326_133001_RV_Revelle.all.mb58.gz 6.21MB Kongsberg multibeam vendor format
0045_20100326_150827_RV_Revelle.all.mb58.gz 20.79MB Kongsberg multibeam vendor format
0046_20100326_170820_RV_Revelle.all.mb58.gz 20.88MB Kongsberg multibeam vendor format
0047_20100326_190828_RV_Revelle.all.mb58.gz 3.42MB Kongsberg multibeam vendor format
0048_20100327_061731_RV_Revelle.all.mb58.gz 19.86MB Kongsberg multibeam vendor format
0049_20100327_081717_RV_Revelle.all.mb58.gz 19.99MB Kongsberg multibeam vendor format
0050_20100327_101721_RV_Revelle.all.mb58.gz 20.30MB Kongsberg multibeam vendor format
0051_20100327_121729_RV_Revelle.all.mb58.gz 20.93MB Kongsberg multibeam vendor format
0052_20100327_141727_RV_Revelle.all.mb58.gz 18.65MB Kongsberg multibeam vendor format
0053_20100328_114533_RV_Revelle.all.mb58.gz 20.37MB Kongsberg multibeam vendor format
0054_20100328_134530_RV_Revelle.all.mb58.gz 20.05MB Kongsberg multibeam vendor format
0055_20100328_154527_RV_Revelle.all.mb58.gz 20.08MB Kongsberg multibeam vendor format
0056_20100328_174524_RV_Revelle.all.mb58.gz 20.30MB Kongsberg multibeam vendor format
0057_20100328_194539_RV_Revelle.all.mb58.gz 20.26MB Kongsberg multibeam vendor format
0058_20100328_214534_RV_Revelle.all.mb58.gz 19.65MB Kongsberg multibeam vendor format
0059_20100328_234531_RV_Revelle.all.mb58.gz 19.36MB Kongsberg multibeam vendor format
0060_20100329_014530_RV_Revelle.all.mb58.gz 19.42MB Kongsberg multibeam vendor format
0061_20100329_034537_RV_Revelle.all.mb58.gz 19.93MB Kongsberg multibeam vendor format
0062_20100329_054534_RV_Revelle.all.mb58.gz 20.05MB Kongsberg multibeam vendor format
0063_20100329_074526_RV_Revelle.all.mb58.gz 19.47MB Kongsberg multibeam vendor format
0064_20100331_041110_RV_Revelle.all.mb58.gz 26.64MB Kongsberg multibeam vendor format
0065_20100331_061105_RV_Revelle.all.mb58.gz 20.00MB Kongsberg multibeam vendor format
0066_20100331_081100_RV_Revelle.all.mb58.gz 37.62MB Kongsberg multibeam vendor format
0067_20100331_101102_RV_Revelle.all.mb58.gz 22.60MB Kongsberg multibeam vendor format

Full Resolution Bathymetry (processed): 1

Files File Size Description
rr1004.b93.mb164.gz 161.98MB NGDC binary hydrographic sounding format

Metadata Files: 1

Files File Size Description
RR1004_Multibeam.xml NGDC created ISO metadata

Ancillary Files: 1

Files File Size Description
xbt.tar.gz 193.4KB Expendable Bathythermograph (XBT) data